[[{"header":{"parameterUnit":"m.s-1","parameterCategory":1,"la1":30.2991,"la2":30.254,"lo1":-89.0895,"lo2":-89.0444,"dy":0.0017,"dx":0.0017,"nx":28,"ny":28,"refTime":"2024-02-16T03:00:00:Z","depth":0,"parameterNumber":2,"parameterNumberName":"U-component_of_WINDS"},"data":[0,0,0,0,0,0,0,0,0,0,0,0,0,0,0,0,0,0,0,0,0,0,0,0,0,0,0,0,0,0,0,0,0,0,0,0,0,0,0,0,0,0,0,0,0,0,0,0,0,0,0,0,0,0,0,0,0,0,0.2636,0.2636,0,0.2646,0.2647,0.2647,0.2643,0.2643,0.2643,0.2643,0.2654,0.2654,0.2655,0,0,0,0,0,0,0,0,0,0,0,0,0,0.2613,0.2614,0.2636,0.2636,0.2636,0.2646,0.2647,0.2647,0.2643,0.2643,0.2643,0.2643,0.2654,0.2654,0.2655,0,0,0,0,0,0,0,0,0,0,0,0,0,0.2623,0.2614,0.2636,0.2636,0.2636,0.2646,0.2647,0.2647,0.2643,0.2643,0.2643,0.2643,0.2653,0.2654,0.2655,0.2666,0,0,0.2657,0.2658,0,0,0,0,0,0,0,0,0.2623,0.2624,0.2636,0.2636,0.2636,0.2643,0.2642,0.2653,0.2644,0.2641,0.2643,0.2642,0.2651,0.2652,0.2654,0.2667,0.2667,0.2657,0.2658,0.2658,0.2658,0,0,0,0,0,0,0,0.2622,0.2624,0.264,0.2636,0.2636,0.2635,0.2636,0.2644,0.2647,0.2641,0.2641,0.2642,0.2651,0.2654,0.2654,0.2667,0.2657,0.2658,0.2658,0.2659,0.2687,0.2688,0,0,0,0,0,0,0.2621,0.2623,0.264,0.2641,0.2628,0.2636,0.2637,0.2641,0.2647,0.2648,0.2642,0.2642,0.2652,0.2654,0.2655,0.2667,0.2658,0.2659,0.2659,0.2687,0.2688,0.2688,0,0,0,0,0,0,0.2621,0.2623,0.264,0.2632,0.2634,0.2637,0.2641,0.2642,0.2645,0.2648,0.2649,0.2645,0.2652,0.2654,0.2663,0.2668,0.2659,0.266,0.2687,0.2687,0.2688,0.2693,0,0,0,0,0,0,0.262,0.2623,0.2627,0.2632,0.2634,0.2648,0.2642,0.2642,0.2646,0.2645,0.2651,0.2651,0.2652,0.2662,0.2664,0.2669,0.266,0.2686,0.2687,0.2688,0.2693,0.2694,0.2695,0,0,0,0,0,0.2619,0.2629,0.2628,0.263,0.264,0.2648,0.2649,0.265,0.2646,0.2651,0.2653,0.2651,0.2667,0.2663,0.2665,0.267,0.2686,0.2687,0.2688,0.2692,0.2694,0.2695,0,0,0,0,0,0,0.2626,0.263,0.2628,0.264,0.2643,0.2648,0.2653,0.2652,0.2657,0.2656,0.2657,0.2658,0.2667,0.2669,0.2665,0.268,0.2676,0.2677,0.2679,0.268,0.2681,0.2681,0.2661,0,0,0,0,0,0.2628,0.2634,0.2638,0.2647,0.2649,0.2651,0.2654,0.2654,0.2658,0.266,0.2663,0.2667,0.2672,0.2676,0.2682,0.2693,0.2693,0.2697,0.2698,0.2699,0.27,0.2705,0.2706,0.269,0.269,0.269,0,0,0.2634,0.2637,0.2641,0.2649,0.2652,0.2658,0.2652,0.2659,0.2664,0.2661,0.267,0.2672,0.2676,0.2686,0.269,0.2688,0.2704,0.27,0.2701,0.2701,0.2706,0.2707,0.2708,0.2691,0.2691,0.2691,0,0,0.2648,0.2651,0.2659,0.2661,0.2665,0.2666,0.2668,0.2671,0.2672,0.2681,0.2679,0.2683,0.2694,0.2696,0.2699,0.2711,0.271,0.2713,0.2719,0.2723,0.2725,0.2726,0.2729,0.2731,0.2714,0.2714,0.2714,0,0.2655,0.2664,0.2663,0.267,0.2672,0.2669,0.2677,0.2679,0.2685,0.2687,0.2684,0.2696,0.2699,0.2708,0.2711,0.2713,0.2715,0.2713,0.2724,0.2725,0.2727,0.273,0.2731,0.2714,0.2714,0.2714,0.2714,0,0.2671,0.2677,0.2683,0.2688,0.2691,0.2699,0.2698,0.2702,0.2701,0.2701,0.2709,0.2712,0.2717,0.2719,0.2719,0.2728,0.2727,0.2724,0.272,0.2728,0.2732,0.2733,0.2715,0.2715,0.2714,0.2714,0,0,0.2691,0.2694,0.2696,0.2697,0.27,0.2705,0.2711,0.2716,0.2718,0.2722,0.2727,0.2734,0.2731,0.2734,0.2734,0.2738,0.2746,0.2734,0.2734,0.2736,0.2755,0.2757,0.2759,0.2744,0.2744,0.2745,0.2755,0,0.2704,0.2715,0.2714,0.2724,0.2729,0.2725,0.273,0.2733,0.2733,0.2737,0.2737,0.2742,0.2738,0.274,0.2743,0.2744,0.275,0.2743,0.2749,0.2749,0.2748,0.2761,0.2763,0.2773,0.2756,0.2756,0.2756,0,0.2722,0.2725,0.2736,0.2737,0.2739,0.2744,0.2747,0.2751,0.2752,0.2752,0.2754,0.2753,0.2758,0.2753,0.276,0.2756,0.2757,0.2758,0.2758,0.2759,0.2753,0.2762,0.2776,0.2777,0.2759,0.2758,0.2758,0,0.2735,0.2742,0.2748,0.275,0.2751,0.2754,0.2755,0.2756,0.2759,0.2761,0.2763,0.2766,0.2768,0.277,0.2769,0.2765,0.2776,0.2771,0.2776,0.2776,0.2779,0.2779,0.2793,0.278,0.278,0.278,0.278,0,0.275,0.2757,0.2754,0.2758,0.2765,0.2762,0.2769,0.2769,0.277,0.2774,0.2771,0.2774,0.2772,0.2775,0.2774,0.278,0.2781,0.278,0.278,0.2781,0.2781,0.2783,0.2782,0.278,0.278,0.278,0.278,0,0.2766,0.2764,0.2771,0.2771,0.2771,0.2776,0.2776,0.278,0.2779,0.2783,0.2784,0.2783,0.2786,0.2785,0.2789,0.2788,0.2795,0.2794,0.2794,0.2794,0.2799,0.2798,0.2815,0.2817,0.2802,0.2802,0.2802,0,0.2776,0.2781,0.2781,0.2783,0.2783,0.2787,0.2789,0.2786,0.2788,0.2789,0.2792,0.2795,0.2797,0.2803,0.2802,0.2805,0.2803,0.2809,0.2804,0.2804,0.2803,0.2803,0.2803,0.281,0.2811,0.2811,0.2811,0,0.2794,0.2793,0.2795,0.2797,0.2799,0.2801,0.2802,0.2804,0.2801,0.2803,0.2806,0.2807,0.281,0.2813,0.2815,0.2815,0.2812,0.2812,0.2813,0.2814,0.2814,0.2814,0.2797,0.2812,0.2812,0.2812,0.2812,0.2812,0.2807,0.2811,0.2811,0.2813,0.2813,0.2814,0.2817,0.2816,0.2818,0.282,0.2818,0.2821,0.2821,0.2823,0.2824,0.2826,0.2824,0.2826,0.2826,0.2827,0.2827,0.2813,0.2826,0.2826,0.2826,0.2826,0.2826,0,0.2825,0.2824,0.2826,0.2827,0.2829,0.2825,0.2826,0.2827,0.283,0.283,0.2832,0.2835,0.2837,0.2835,0.2837,0.2839,0.2837,0.2839,0.2839,0.2839,0.2829,0.2828,0.284,0.284,0.284,0.284,0.284,0.284,0.2834,0.2839,0.2837,0.2842,0.2841,0.2844,0.2844,0.2845,0.2844,0.2847,0.2849,0.2848,0.2847,0.2848,0.2849,0.2849,0.2849,0.2852,0.2851,0.2842,0.284,0.2839,0.2838,0.2852,0.2852,0.2861,0.2861,0.2861]},{"header":{"parameterUnit":"m.s-1","parameterCategory":1,"la1":30.2991,"la2":30.254,"lo1":-89.0895,"lo2":-89.0444,"dy":0.0017,"dx":0.0017,"nx":28,"ny":28,"refTime":"2024-02-16T03:00:00:Z","depth":0,"parameterNumber":3,"parameterNumberName":"V-component_of_WINDS"},"data":[0,0,0,0,0,0,0,0,0,0,0,0,0,0,0,0,0,0,0,0,0,0,0,0,0,0,0,0,0,0,0,0,0,0,0,0,0,0,0,0,0,0,0,0,0,0,0,0,0,0,0,0,0,0,0,0,0,0,1.4518,1.4518,0,1.4519,1.4519,1.4519,1.4529,1.4529,1.4529,1.4529,1.4529,1.4529,1.4528,0,0,0,0,0,0,0,0,0,0,0,0,0,1.4523,1.4523,1.4518,1.4518,1.4518,1.4519,1.4519,1.4519,1.4528,1.4529,1.4529,1.4529,1.4529,1.4529,1.4528,0,0,0,0,0,0,0,0,0,0,0,0,0,1.4522,1.4523,1.4518,1.4523,1.4523,1.4519,1.4519,1.4519,1.4528,1.4529,1.4529,1.453,1.4529,1.4529,1.4528,1.4519,0,0,1.4527,1.4527,0,0,0,0,0,0,0,0,1.4522,1.4522,1.4522,1.4523,1.4523,1.4524,1.4521,1.4519,1.4528,1.4526,1.4529,1.453,1.4527,1.4527,1.4526,1.4519,1.4519,1.4527,1.4527,1.4527,1.4527,0,0,0,0,0,0,0,1.4522,1.4522,1.4518,1.4522,1.4523,1.4525,1.4525,1.452,1.4525,1.4527,1.4527,1.4527,1.4527,1.4526,1.4526,1.4519,1.4527,1.4527,1.4527,1.4526,1.4502,1.4502,0,0,0,0,0,0,1.4522,1.4522,1.4518,1.4518,1.4524,1.4524,1.4525,1.4523,1.4525,1.4525,1.4527,1.4528,1.4527,1.4526,1.4526,1.4514,1.4527,1.4526,1.4526,1.4503,1.4502,1.4502,0,0,0,0,0,0,1.4522,1.4521,1.4518,1.452,1.452,1.4524,1.4522,1.4523,1.4522,1.4525,1.4526,1.4526,1.4527,1.4527,1.452,1.4514,1.4526,1.4526,1.4503,1.4503,1.4502,1.4491,0,0,0,0,0,0,1.4522,1.4521,1.4518,1.452,1.452,1.4513,1.4522,1.4523,1.4522,1.4523,1.4524,1.4524,1.4527,1.4521,1.452,1.4514,1.4526,1.4504,1.4503,1.4502,1.4491,1.449,1.4488,0,0,0,0,0,1.4522,1.4515,1.4518,1.4517,1.4516,1.4513,1.4512,1.4516,1.4521,1.4518,1.4519,1.4524,1.4515,1.452,1.4519,1.4513,1.4504,1.4503,1.4502,1.4492,1.449,1.4488,0,0,0,0,0,0,1.4511,1.4515,1.4519,1.4512,1.4512,1.4514,1.451,1.4514,1.4512,1.4513,1.4518,1.4518,1.4511,1.4512,1.4517,1.4503,1.451,1.4509,1.4503,1.4501,1.4499,1.4499,1.4525,0,0,0,0,0,1.4508,1.4506,1.4509,1.4503,1.4502,1.4506,1.4505,1.4508,1.4508,1.4508,1.4509,1.4509,1.4506,1.4503,1.4501,1.4492,1.4492,1.4487,1.4485,1.4484,1.4483,1.4477,1.4474,1.4499,1.4499,1.4499,0,0,1.4502,1.4503,1.4501,1.45,1.4501,1.4497,1.4506,1.4502,1.4499,1.4507,1.4501,1.4502,1.4502,1.4494,1.449,1.4494,1.4476,1.4483,1.4482,1.4481,1.4476,1.4473,1.4471,1.4498,1.4498,1.4498,0,0,1.4488,1.4489,1.4484,1.4484,1.4485,1.4487,1.4486,1.4488,1.4488,1.4483,1.4488,1.4485,1.448,1.4479,1.4478,1.4463,1.4467,1.4463,1.4453,1.4447,1.4445,1.4444,1.4437,1.4435,1.4461,1.4461,1.4461,0,1.4479,1.4475,1.448,1.4476,1.4475,1.4482,1.4476,1.4476,1.4476,1.4474,1.4479,1.4472,1.4473,1.4464,1.446,1.446,1.4458,1.4462,1.4445,1.4444,1.4442,1.4436,1.4434,1.4461,1.4461,1.4461,1.4461,0,1.4464,1.4461,1.4456,1.4456,1.4454,1.4449,1.4453,1.4451,1.4454,1.4456,1.445,1.445,1.4448,1.4446,1.4449,1.4438,1.444,1.4445,1.4452,1.4439,1.4434,1.4431,1.446,1.446,1.446,1.446,0,0,1.4443,1.4445,1.4444,1.4443,1.4444,1.4442,1.4437,1.4434,1.4432,1.4431,1.4426,1.4422,1.4426,1.4425,1.4428,1.4423,1.4411,1.4429,1.4429,1.4424,1.4397,1.4392,1.4389,1.4414,1.4413,1.4413,1.4396,0,1.4428,1.442,1.4425,1.4416,1.4412,1.4419,1.4414,1.4414,1.4416,1.4413,1.4414,1.4411,1.4417,1.4416,1.4412,1.4413,1.4405,1.4415,1.4408,1.4408,1.4407,1.4387,1.4382,1.4366,1.4394,1.4394,1.4394,0,1.4411,1.441,1.44,1.4401,1.44,1.4396,1.4394,1.4391,1.4391,1.4392,1.4391,1.4395,1.4389,1.4397,1.4388,1.4395,1.4392,1.4393,1.4392,1.4391,1.4399,1.4384,1.4362,1.4359,1.439,1.4391,1.4391,0,1.4395,1.4391,1.4385,1.4384,1.4386,1.4383,1.4383,1.4383,1.4381,1.438,1.4378,1.4376,1.4374,1.4371,1.4374,1.438,1.4365,1.4373,1.4365,1.4365,1.436,1.436,1.4336,1.4361,1.4361,1.4361,1.4361,0,1.4378,1.4372,1.4378,1.4373,1.4366,1.4372,1.4364,1.4365,1.4365,1.4361,1.4367,1.4363,1.4367,1.4363,1.4365,1.4357,1.4357,1.4357,1.4357,1.4356,1.4356,1.4354,1.4354,1.436,1.436,1.4361,1.4361,0,1.4359,1.4363,1.4356,1.4358,1.4358,1.4353,1.4354,1.435,1.4352,1.4347,1.4346,1.4349,1.4344,1.4347,1.4342,1.4344,1.4333,1.4336,1.4333,1.4333,1.4324,1.4325,1.4297,1.4293,1.4321,1.4321,1.4321,0,1.4347,1.4342,1.4344,1.4342,1.4342,1.4338,1.4336,1.4341,1.4339,1.4338,1.4334,1.433,1.4327,1.4319,1.432,1.4316,1.4318,1.4309,1.4318,1.4316,1.4317,1.4316,1.4315,1.4307,1.4306,1.4306,1.4306,0,1.4326,1.4328,1.4325,1.4323,1.4321,1.4319,1.4318,1.4316,1.4321,1.4318,1.4313,1.4311,1.4306,1.4302,1.4298,1.4298,1.4302,1.4303,1.4301,1.4299,1.4297,1.4296,1.4327,1.4304,1.4304,1.4304,1.4304,1.4304,1.4309,1.4305,1.4305,1.4302,1.4302,1.4301,1.4297,1.4298,1.4295,1.4292,1.4295,1.4289,1.4288,1.4284,1.4283,1.4278,1.4282,1.4279,1.4278,1.4276,1.4275,1.4299,1.4278,1.4278,1.4278,1.4278,1.4278,0,1.4287,1.4288,1.4285,1.4283,1.428,1.4285,1.4284,1.4281,1.4276,1.4276,1.4273,1.4267,1.4262,1.4263,1.4259,1.4255,1.4257,1.4253,1.4253,1.4253,1.4272,1.4274,1.4252,1.4252,1.4252,1.4252,1.4252,1.4252,1.4275,1.4268,1.427,1.4263,1.4263,1.4258,1.4257,1.4255,1.4255,1.4248,1.4245,1.4246,1.4245,1.4241,1.4237,1.4237,1.4234,1.423,1.4231,1.4249,1.4252,1.4254,1.4256,1.423,1.423,1.4212,1.4212,1.4211]}]]